Hourly Weather Ruinas de San Andrés

Today, 21 April, Wednesday

Time Temperature Precipitation Wind Pressure Humidity
00:00 +21°C° 1.7 mm 0 mps 696 mmHg 92%
01:00 +21°C° 0.6 mm 0 mps 695 mmHg 92%
02:00 +21°C° 0.6 mm 0 mps 695 mmHg 92%
03:00 +21°C° 0.6 mm 0 mps 694 mmHg 91%
04:00 +20°C° 0.5 mm 0 mps 695 mmHg 92%
05:00 +20°C° 0.5 mm 0 mps 695 mmHg 93%
06:00 +20°C° 0.5 mm 0 mps 696 mmHg 93%
07:00 +22°C° 0.2 mm 0 mps 696 mmHg 85%
08:00 +24°C° 0.2 mm 0 mps 697 mmHg 77%
09:00 +28°C° 0.2 mm 1 mps 697 mmHg 69%
10:00 +29°C° 0.2 mm 1 mps 697 mmHg 62%
11:00 +31°C° 0.2 mm 1 mps 697 mmHg 55%
12:00 +32°C° 0.2 mm 1 mps 697 mmHg 48%
13:00 +32°C° 0.2 mm 1 mps 696 mmHg 48%
14:00 +32°C° 0.2 mm 1 mps 695 mmHg 48%
15:00 +32°C° 0.2 mm 1 mps 695 mmHg 48%
16:00 +30°C° 0.3 mm 1 mps 694 mmHg 56%
17:00 +28°C° 0.3 mm 1 mps 694 mmHg 65%
18:00 +27°C° 0.3 mm 1 mps 694 mmHg 73%
19:00 +26°C° 0.1 mm 1 mps 695 mmHg 75%
20:00 +25°C° 0.1 mm 1 mps 695 mmHg 77%
21:00 +24°C° 0.1 mm 1 mps 695 mmHg 78%
22:00 +24°C° 0.5 mm 1 mps 695 mmHg 80%
23:00 +23°C° 0.5 mm 1 mps 695 mmHg 81%

Tomorrow, 22 April, Thursday

Time Temperature Precipitation Wind Pressure Humidity
00:00 +23°C° 0.5 mm 1 mps 695 mmHg 83%
01:00 +23°C° 0.1 mm 1 mps 695 mmHg 84%
02:00 +22°C° 0.1 mm 1 mps 695 mmHg 85%
03:00 +22°C° 0.1 mm 1 mps 695 mmHg 86%
04:00 +22°C° 0 mm 1 mps 695 mmHg 87%
05:00 +22°C° 0 mm 1 mps 695 mmHg 88%
06:00 +22°C° 0 mm 1 mps 696 mmHg 89%
07:00 +24°C° 0 mm 1 mps 696 mmHg 79%
08:00 +26°C° 0 mm 1 mps 697 mmHg 69%
09:00 +28°C° 0 mm 1 mps 697 mmHg 59%
10:00 +29°C° 0 mm 1 mps 697 mmHg 53%
11:00 +31°C° 0 mm 1 mps 697 mmHg 47%
12:00 +33°C° 0 mm 1 mps 696 mmHg 41%
13:00 +33°C° 0 mm 1 mps 696 mmHg 40%
14:00 +33°C° 0 mm 1 mps 695 mmHg 38%
15:00 +33°C° 0 mm 1 mps 694 mmHg 36%
16:00 +31°C° 0.2 mm 1 mps 694 mmHg 48%
17:00 +29°C° 0.2 mm 1 mps 694 mmHg 59%
18:00 +26°C° 0.2 mm 1 mps 694 mmHg 71%
19:00 +26°C° 0.1 mm 1 mps 695 mmHg 74%
20:00 +25°C° 0.1 mm 1 mps 695 mmHg 77%
21:00 +22°C° 0.1 mm 0 mps 696 mmHg 80%
22:00 +22°C° 0 mm 0 mps 696 mmHg 80%
23:00 +21°C° 0 mm 0 mps 696 mmHg 80%

Day after tomorrow, 23 April, Friday

Time Temperature Precipitation Wind Pressure Humidity
00:00 +21°C° 0 mm 0 mps 696 mmHg 80%
01:00 +22°C° 0 mm 1 mps 695 mmHg 80%
02:00 +22°C° 0 mm 1 mps 695 mmHg 80%
03:00 +22°C° 0 mm 1 mps 695 mmHg 79%
04:00 +21°C° 0 mm 1 mps 695 mmHg 80%
05:00 +21°C° 0 mm 1 mps 695 mmHg 80%
06:00 +21°C° 0 mm 1 mps 695 mmHg 80%
07:00 +23°C° 0 mm 1 mps 696 mmHg 72%
08:00 +26°C° 0 mm 1 mps 697 mmHg 63%
09:00 +28°C° 0 mm 1 mps 697 mmHg 54%
10:00 +30°C° 0 mm 1 mps 697 mmHg 47%
11:00 +32°C° 0 mm 1 mps 697 mmHg 40%
12:00 +33°C° 0 mm 1 mps 696 mmHg 33%
13:00 +34°C° 0 mm 2 mps 696 mmHg 34%
14:00 +34°C° 0 mm 2 mps 695 mmHg 35%
15:00 +32°C° 0 mm 2 mps 694 mmHg 36%
16:00 +30°C° 0 mm 2 mps 694 mmHg 46%
17:00 +28°C° 0 mm 2 mps 694 mmHg 56%
18:00 +26°C° 0 mm 2 mps 694 mmHg 66%
19:00 +25°C° 0 mm 1 mps 694 mmHg 71%
20:00 +24°C° 0 mm 1 mps 695 mmHg 77%
21:00 +23°C° 0 mm 1 mps 695 mmHg 82%
22:00 +23°C° 0 mm 1 mps 695 mmHg 82%
23:00 +22°C° 0 mm 1 mps 695 mmHg 82%

24 April, Saturday

Time Temperature Precipitation Wind Pressure Humidity
00:00 +22°C° 0 mm 1 mps 695 mmHg 82%
01:00 +22°C° 0 mm 1 mps 695 mmHg 80%
02:00 +20°C° 0 mm 0 mps 695 mmHg 78%
03:00 +19°C° 0 mm 0 mps 694 mmHg 76%
04:00 +19°C° 0 mm 0 mps 695 mmHg 75%
05:00 +19°C° 0 mm 0 mps 695 mmHg 75%
06:00 +19°C° 0 mm 0 mps 695 mmHg 74%
07:00 +22°C° 0 mm 0 mps 696 mmHg 65%
08:00 +24°C° 0 mm 0 mps 696 mmHg 55%
09:00 +27°C° 0 mm 0 mps 697 mmHg 46%
10:00 +31°C° 0 mm 1 mps 697 mmHg 42%
11:00 +32°C° 0 mm 1 mps 696 mmHg 39%
12:00 +34°C° 0 mm 2 mps 696 mmHg 36%
13:00 +34°C° 0 mm 2 mps 696 mmHg 39%
14:00 +32°C° 0 mm 2 mps 695 mmHg 41%
15:00 +32°C° 0 mm 2 mps 694 mmHg 44%
16:00 +30°C° 0 mm 2 mps 694 mmHg 53%
17:00 +28°C° 0 mm 2 mps 694 mmHg 62%
18:00 +26°C° 0 mm 2 mps 694 mmHg 71%
19:00 +25°C° 0 mm 2 mps 695 mmHg 76%
20:00 +24°C° 0 mm 1 mps 695 mmHg 81%
21:00 +23°C° 0 mm 1 mps 695 mmHg 86%
22:00 +23°C° 0 mm 1 mps 695 mmHg 87%
23:00 +23°C° 0 mm 1 mps 695 mmHg 88%

25 April, Sunday

Time Temperature Precipitation Wind Pressure Humidity
00:00 +22°C° 0 mm 1 mps 695 mmHg 89%
01:00 +20°C° 0 mm 0 mps 695 mmHg 89%
02:00 +20°C° 0 mm 0 mps 694 mmHg 89%
03:00 +20°C° 0 mm 0 mps 694 mmHg 89%
04:00 +20°C° 0 mm 0 mps 694 mmHg 89%
05:00 +20°C° 0 mm 0 mps 695 mmHg 89%
06:00 +20°C° 0 mm 0 mps 695 mmHg 89%
07:00 +22°C° 0 mm 0 mps 696 mmHg 77%
08:00 +25°C° 0 mm 0 mps 696 mmHg 65%
09:00 +28°C° 0 mm 0 mps 697 mmHg 53%
10:00 +31°C° 0 mm 1 mps 697 mmHg 47%
11:00 +33°C° 0 mm 1 mps 696 mmHg 41%
12:00 +34°C° 0 mm 1 mps 696 mmHg 36%
13:00 +34°C° 0 mm 1 mps 695 mmHg 37%
14:00 +35°C° 0 mm 2 mps 694 mmHg 39%
15:00 +34°C° 0 mm 2 mps 694 mmHg 40%
16:00 +31°C° 0 mm 2 mps 694 mmHg 50%
17:00 +29°C° 0 mm 2 mps 694 mmHg 59%
18:00 +27°C° 0 mm 2 mps 694 mmHg 69%
19:00 +26°C° 0 mm 2 mps 694 mmHg 74%
20:00 +25°C° 0 mm 1 mps 694 mmHg 79%
21:00 +24°C° 0 mm 1 mps 695 mmHg 84%
22:00 +22°C° 0 mm 0 mps 695 mmHg 85%
23:00 +21°C° 0 mm 0 mps 695 mmHg 86%

26 April, Monday

Time Temperature Precipitation Wind Pressure Humidity
00:00 +21°C° 0 mm 0 mps 694 mmHg 86%
01:00 +21°C° 0 mm 0 mps 694 mmHg 86%
02:00 +21°C° 0 mm 0 mps 694 mmHg 87%
03:00 +21°C° 0 mm 0 mps 694 mmHg 87%
04:00 +21°C° 0 mm 0 mps 694 mmHg 86%
05:00 +21°C° 0 mm 0 mps 695 mmHg 86%
06:00 +20°C° 0 mm 0 mps 695 mmHg 86%
07:00 +25°C° 0 mm 1 mps 696 mmHg 75%
08:00 +28°C° 0 mm 1 mps 696 mmHg 63%
09:00 +30°C° 0 mm 1 mps 697 mmHg 52%
10:00 +32°C° 0 mm 1 mps 697 mmHg 46%
11:00 +33°C° 0 mm 1 mps 696 mmHg 41%
12:00 +35°C° 0 mm 1 mps 696 mmHg 35%
13:00 +35°C° 0 mm 2 mps 695 mmHg 37%
14:00 +35°C° 0 mm 2 mps 695 mmHg 39%
15:00 +34°C° 0 mm 2 mps 694 mmHg 41%
16:00 +31°C° 0 mm 2 mps 694 mmHg 52%
17:00 +29°C° 0 mm 2 mps 694 mmHg 63%
18:00 +26°C° 0 mm 2 mps 694 mmHg 75%
19:00 +26°C° 0 mm 2 mps 694 mmHg 78%
20:00 +25°C° 0 mm 1 mps 695 mmHg 82%
21:00 +24°C° 0 mm 1 mps 695 mmHg 85%
22:00 +22°C° 0.1 mm 0 mps 695 mmHg 85%
23:00 +22°C° 0.1 mm 0 mps 695 mmHg 85%
Show more